STARLINK-32754, 62527

Orbit data source: Space-Track

STARLINK-32754, 62527 is a payload satellite owned by SpaceX/Seattle (US) in LEO that was launched on Wed, 08 Jan 2025 UTC via an FALCON 9 launch vehicle from the Air Force Eastern Test Range (AFETR). Payload-class satellites include a variety of spacecraft equipped with specific instruments for various scientific and technological missions. These include communications satellites like Starlink; space stations such as the ISS; scientific satellites like the Hubble; Earth observation satellites from companies like Planet Labs, Umbra, and HawkEye 360; GPS; miniature CubeSats for education and research; and military/defense satellites.

Loading next visibility...
Identifier
62527, 2025-004S
Orbit
LEO
Country
Flag of USUS
Related business
Manufacturer
SpaceX/Seattle
Mission
Operational Commercial Communications
Bus & Motor
STARLINK V2M, Unknown motor
Mass
730 kg wet, ~700 kg dry
Launch date (UTC)
2025-01-08 (11 months ago)
Launch vehicle
FALCON 9
Launch site
Air Force Eastern Test Range (AFETR)
Object type
Payload
Rocket body
Debris
Shape & HBR
Box + 2 Pan, 17.7 m
Radar Cross Section
33.884 m², Large (>1 m²)

Expand to show TLE details & history
Last TLE update: 1 day ago

TLE from 1 day ago
0 STARLINK-32754
1 62527U 25004S   25348.39523367  .00026615  00000-0  97310-3 0  9996
2 62527  43.0020 341.5948 0002112 262.3838  97.6774 15.27582809 52469
Epoch: 2025-12-14T09:29Z
TLE epoch observation values (Epoch: 2025-12-14T09:29:08.189Z)
Latitude
0.00001°
Longitude
116.00192°
Altitude
483.01 km
Speed
7.626 km/s
True Right ascension
22h 46m 22s
True Declination
0° 00' 00"
Sunlit
Object was in daylight at epoch
Visualization orbit readout
Latitude
Unknown
Longitude
Unknown
Altitude
Unknown
Speed
Unknown
Apparent Right ascension
Unknown
Apparent Declination
Unknown
Sunlit
N/A
Visualization observer readout
Local Sidereal Time
08:49:14
Azimuth
Unknown
Elevation
Unknown
Doppler factor
Unknown
Orbital elements
Apogee altitude
486.435 km
Perigee altitude
483.536 km
Semi-major axis
6,863.123 km
Eccentricity
0.00021
Inclination
43.002°
RAAN
341.5948°
Arg. of periapsis
262.3838°
True anomaly
97.70138°
Mean anomaly
97.6774°
Eccentric anomaly
97.68939°
Mean motion
3.81734 °/min
Orbital period
94.31 mins
BSTAR
0.0009731
Loading maneuver chart data...
Computing Atmospheric mass density...
Loading historical data...
Loading historical data...
Loading historical data...
Loading historical data...
Loading historical data...
Loading historical data...
Loading historical data...

Documentation

Showing up to 5 results
|